GW6360 Weather Reports


time (UTC)temp
C
wind
direction
speed
KPH
gust
KPH
rain 1hr
cm
rain 24hr
cm
rain mn
cm
humidity
%
barometer
mb
20260507050758 10 209 11.3 16.1 0.00 0.00 0.00 97 1007.2
20260507050254 10 215 12.9 16.1 0.00 0.00 0.00 97 1007.4
20260507045751 10 229 12.9 16.1 0.00 0.00 0.00 97 1007.3
20260507045247 10 201 12.9 14.5 0.00 0.00 0.00 97 1007.2
20260507044745 10 197 9.7 16.1 0.00 0.00 0.00 97 1007.1
20260507044241 10 185 11.3 17.7 0.00 0.00 0.00 97 1007.1
20260507043737 10 205 12.9 19.3 0.00 0.00 0.00 97 1007.1
20260507043234 10 200 12.9 19.3 0.00 0.00 0.00 97 1007.1
20260507042731 10 195 12.9 20.9 0.00 0.00 0.00 97 1007.3
20260507042226 10 203 14.5 19.3 0.00 0.00 0.00 97 1007.4
20260507041724 10 198 14.5 22.5 0.00 0.00 0.00 97 1007.2
20260507041220 10 195 14.5 16.1 0.00 0.00 0.00 97 1007.2
20260507040717 10 190 16.1 17.7 0.00 0.00 0.00 97 1007.2
20260507040213 10 199 14.5 17.7 0.00 0.00 0.00 97 1007.4
20260507035709 11 202 16.1 19.3 0.00 0.61 0.61 97 1007.4
20260507035205 11 188 9.7 17.7 0.00 0.61 0.61 97 1007.4
20260507034702 11 198 12.9 19.3 0.00 0.61 0.61 97 1007.4
20260507034200 11 208 19.3 24.1 0.00 0.61 0.61 97 1007.5
20260507033658 11 205 20.9 24.1 0.00 0.61 0.61 97 1007.4
20260507033155 11 206 17.7 27.4 0.00 0.61 0.61 97 1007.6
20260507032652 11 204 19.3 25.7 0.00 0.61 0.61 97 1007.6
20260507032148 11 210 22.5 30.6 0.00 0.61 0.61 97 1007.7
20260507031645 11 213 19.3 25.7 0.00 0.61 0.61 97 1007.9
20260507031141 11 210 20.9 25.7 0.00 0.61 0.61 97 1007.9
20260507030638 11 199 19.3 24.1 0.00 0.61 0.61 97 1007.7
20260507030136 11 206 22.5 25.7 0.00 0.61 0.61 97 1007.7
20260507025633 11 212 20.9 29.0 0.00 0.61 0.61 97 1007.7
20260507025130 11 210 19.3 30.6 0.00 0.61 0.61 97 1007.8
20260507024628 11 220 22.5 27.4 0.00 0.61 0.61 97 1007.9
20260507024125 11 212 22.5 32.2 0.00 0.61 0.61 97 1007.7
20260507023620 11 199 17.7 22.5 0.00 0.61 0.61 97 1007.7
20260507023118 11 202 17.7 24.1 0.00 0.61 0.61 97 1007.7
20260507022615 11 201 16.1 25.7 0.00 0.61 0.61 97 1007.9
20260507022110 11 210 16.1 24.1 0.00 0.61 0.61 96 1007.8
20260507021607 11 206 22.5 25.7 0.00 0.61 0.61 96 1007.9
20260507021102 11 207 16.1 22.5 0.00 0.61 0.61 96 1007.9
20260507020601 11 198 16.1 20.9 0.00 0.61 0.61 96 1008.0
20260507020057 11 201 14.5 27.4 0.00 0.61 0.61 96 1007.9
20260507015556 11 216 16.1 25.7 0.00 0.61 0.61 96 1007.8
20260507015053 11 188 11.3 29.0 0.00 0.61 0.61 96 1008.0
20260507014549 11 215 20.9 27.4 0.00 0.61 0.61 96 1008.0
20260507014044 11 209 20.9 29.0 0.00 0.61 0.61 96 1008.2
20260507013541 11 217 20.9 27.4 0.00 0.61 0.61 96 1008.3
20260507013039 11 205 20.9 30.6 0.00 0.61 0.61 96 1008.1
20260507012536 11 208 20.9 29.0 0.00 0.61 0.61 96 1008.4
20260507012026 11 213 22.5 32.2 0.00 0.61 0.61 96 1008.4
20260507011524 11 211 22.5 27.4 0.00 0.61 0.61 96 1008.3
20260507011019 11 213 27.4 30.6 0.00 0.61 0.61 96 1008.4
20260507010515 11 229 32.2 33.8 0.00 0.61 0.61 96 1008.5
20260507010011 11 218 19.3 30.6 0.00 0.61 0.61 96 1008.4
20260507005509 11 216 24.1 33.8 0.00 0.61 0.61 96 1008.6
20260507005005 11 218 30.6 30.6 0.00 0.61 0.61 96 1008.5
20260507004502 11 226 29.0 32.2 0.00 0.61 0.61 96 1008.6
20260507004000 11 229 20.9 29.0 0.00 0.61 0.61 96 1008.5
20260507003455 11 228 27.4 33.8 0.00 0.61 0.61 96 1008.4
20260507002950 11 219 22.5 27.4 0.00 0.61 0.61 96 1008.5
20260507002447 11 227 19.3 29.0 0.00 0.61 0.61 96 1008.4
20260507001943 11 215 27.4 30.6 0.00 0.61 0.61 97 1008.3
20260507001439 11 217 22.5 27.4 0.00 0.61 0.61 96 1008.3
20260507000937 11 220 20.9 25.7 0.00 0.61 0.61 97 1008.2
20260507000434 11 224 20.9 29.0 0.00 0.61 0.61 97 1008.3
20260506235928 11 220 16.1 24.1 0.00 0.61 0.61 97 1008.1
20260506235426 11 214 12.9 19.3 0.00 0.61 0.61 97 1008.2
20260506234922 11 216 24.1 25.7 0.00 0.61 0.61 97 1008.3
20260506234420 11 208 14.5 22.5 0.00 0.61 0.61 97 1008.1
20260506233917 11 193 14.5 25.7 0.00 0.61 0.61 97 1008.1
20260506233414 11 210 27.4 29.0 0.00 0.61 0.61 97 1008.0
20260506232910 11 196 16.1 25.7 0.00 0.61 0.61 97 1008.1
20260506232406 11 184 11.3 27.4 0.00 0.61 0.61 97 1008.1
20260506231902 11 200 17.7 20.9 0.05 0.61 0.61 97 1007.9
20260506231359 11 201 27.4 29.0 0.00 0.58 0.58 97 1008.0
20260506230857 11 186 12.9 33.8 0.00 0.58 0.58 97 1007.8
20260506230353 11 199 19.3 30.6 0.05 0.58 0.58 97 1007.9
20260506225849 11 189 20.9 29.0 0.13 0.58 0.58 97 1007.9
20260506225347 11 186 14.5 25.7 0.00 0.56 0.56 96 1007.9
20260506224844 11 177 14.5 24.1 0.00 0.56 0.56 96 1007.9
20260506224342 11 180 17.7 19.3 0.05 0.56 0.56 96 1007.9
20260506223838 11 193 22.5 29.0 0.43 0.56 0.56 96 1008.0
20260506223333 11 176 12.9 32.2 0.66 0.56 0.56 96 1008.1
20260506222831 11 180 16.1 27.4 0.48 0.48 0.48 96 1008.1
20260506222326 11 203 19.3 27.4 0.36 0.43 0.43 96 1008.4
20260506221824 11 192 17.7 30.6 0.36 0.41 0.41 96 1008.1
20260506221321 11 195 22.5 27.4 0.36 0.38 0.38 95 1008.3
20260506220819 11 198 17.7 27.4 0.23 0.33 0.33 95 1008.2
20260506220319 11 195 16.1 29.0 0.13 0.30 0.30 95 1008.4
20260506215816 11 196 14.5 22.5 0.13 0.28 0.28 95 1008.7
20260506215312 11 203 16.1 20.9 0.30 0.28 0.28 95 1008.6
20260506214808 11 199 12.9 27.4 0.23 0.28 0.28 94 1008.8
20260506214305 11 179 14.5 27.4 0.00 0.23 0.23 94 1008.7
20260506213803 11 191 14.5 27.4 0.13 0.23 0.23 94 1008.8
20260506213300 11 191 17.7 25.7 0.18 0.23 0.23 94 1008.6
20260506212757 11 179 22.5 33.8 0.36 0.20 0.20 94 1008.4
20260506212253 11 201 22.5 27.4 0.30 0.18 0.18 94 1008.6
20260506211748 11 179 14.5 20.9 0.05 0.15 0.15 93 1008.8
20260506211245 11 203 27.4 27.4 0.00 0.13 0.13 93 1008.8
20260506210742 11 191 14.5 22.5 0.05 0.13 0.13 93 1008.9
20260506210239 11 173 16.1 29.0 0.05 0.13 0.13 93 1008.9
20260506205736 11 211 17.7 20.9 0.05 0.13 0.13 93 1008.8
20260506205231 12 186 9.7 22.5 0.13 0.13 0.13 93 1008.8
20260506204728 12 210 22.5 24.1 0.13 0.10 0.10 93 1009.0
20260506204226 12 199 16.1 24.1 0.13 0.10 0.10 93 1009.0
20260506203724 12 194 14.5 17.7 0.13 0.10 0.10 93 1009.0
20260506203221 11 201 16.1 17.7 0.05 0.08 0.08 92 1009.1
20260506202719 11 191 14.5 22.5 0.05 0.08 0.08 92 1009.0
20260506202215 12 191 14.5 24.1 0.05 0.05 0.05 92 1009.2
20260506201712 12 170 6.4 22.5 0.05 0.05 0.05 92 1009.0
20260506201208 12 160 14.5 20.9 0.05 0.05 0.05 92 1009.2
20260506200705 12 161 14.5 22.5 0.00 0.05 0.05 92 1009.2
20260506200202 12 179 11.3 29.0 0.05 0.05 0.05 92 1009.2
20260506195658 12 164 19.3 27.4 0.13 0.05 0.05 91 1009.4
20260506195155 12 183 16.1 27.4 0.05 0.03 0.03 91 1009.6
20260506194652 12 192 16.1 25.7 0.05 0.03 0.03 91 1009.6
20260506194148 12 185 9.7 29.0 0.05 0.03 0.03 91 1009.7
20260506193646 12 194 24.1 25.7 0.05 0.00 0.00 90 1009.7
20260506193143 12 194 16.1 20.9 0.00 0.00 0.00 90 1009.5
20260506192640 12 195 14.5 24.1 0.00 0.00 0.00 89 1009.8
20260506192136 12 195 14.5 32.2 0.00 0.00 0.00 88 1009.7
20260506191633 12 187 19.3 24.1 0.00 0.00 0.00 88 1009.9
20260506191129 12 198 17.7 30.6 0.00 0.00 0.00 88 1010.1
20260506190626 12 201 24.1 24.1 0.00 0.00 0.00 88 1010.0
20260506190123 12 190 11.3 41.8 0.00 0.00 0.00 88 1010.1
20260506185620 12 189 16.1 38.6 0.00 0.00 0.00 88 1010.1
20260506185116 12 206 19.3 29.0 0.00 0.00 0.00 87 1010.2
20260506184614 12 205 20.9 37.0 0.00 0.00 0.00 87 1010.1
20260506184111 12 173 16.1 37.0 0.00 0.00 0.00 86 1010.0
20260506183608 13 178 12.9 25.7 0.00 0.00 0.00 86 1009.9
20260506183104 13 178 20.9 33.8 0.00 0.00 0.00 86 1009.9
20260506182601 13 177 25.7 37.0 0.00 0.00 0.00 86 1010.1
20260506182058 13 195 20.9 38.6 0.00 0.00 0.00 86 1010.2
20260506181556 13 187 17.7 32.2 0.00 0.00 0.00 86 1010.3
20260506181053 13 179 17.7 37.0 0.00 0.00 0.00 87 1010.2
20260506180549 13 193 14.5 33.8 0.00 0.00 0.00 87 1010.4
20260506180046 13 198 20.9 27.4 0.00 0.00 0.00 87 1010.5
20260506175542 12 206 24.1 27.4 0.00 0.00 0.00 88 1010.7
20260506175039 12 205 20.9 41.8 0.00 0.00 0.00 88 1010.8
20260506174538 12 191 32.2 35.4 0.00 0.00 0.00 88 1011.0
20260506174033 12 205 29.0 33.8 0.00 0.00 0.00 88 1011.1
20260506173531 12 213 24.1 25.7 0.00 0.00 0.00 88 1011.3
20260506173028 12 203 24.1 30.6 0.00 0.00 0.00 88 1011.4
20260506172526 12 214 17.7 27.4 0.00 0.00 0.00 88 1011.4
20260506172021 12 205 24.1 40.2 0.00 0.00 0.00 88 1011.2
20260506171519 12 198 25.7 30.6 0.00 0.00 0.00 87 1011.2
20260506171017 12 165 14.5 33.8 0.00 0.00 0.00 87 1011.0
20260506170514 13 188 20.9 30.6 0.00 0.00 0.00 86 1011.2
20260506170012 13 185 22.5 30.6 0.00 0.00 0.00 86 1011.2
20260506165510 13 179 19.3 40.2 0.00 0.00 0.00 86 1011.3
20260506165005 13 214 20.9 25.7 0.00 0.00 0.00 86 1011.2
20260506164502 13 197 27.4 45.1 0.00 0.00 0.00 86 1011.4
20260506164000 13 204 30.6 37.0 0.00 0.00 0.00 86 1011.6
20260506163455 13 195 22.5 32.2 0.00 0.00 0.00 86 1011.6
20260506162950 13 196 20.9 35.4 0.00 0.00 0.00 86 1011.5
20260506162448 13 194 19.3 41.8 0.00 0.00 0.00 87 1011.7
20260506161945 13 192 19.3 32.2 0.00 0.00 0.00 87 1011.7
20260506161443 12 193 24.1 32.2 0.00 0.00 0.00 87 1012.0
20260506160940 12 201 16.1 33.8 0.00 0.00 0.00 88 1011.8
20260506160437 12 213 24.1 35.4 0.00 0.00 0.00 88 1012.1
20260506155935 12 199 25.7 38.6 0.00 0.00 0.00 88 1012.3
20260506155432 12 206 32.2 35.4 0.00 0.00 0.00 87 1012.2
20260506153554 12 195 20.9 32.2 0.00 0.00 0.00 87 1012.3
20260506153051 12 191 20.9 32.2 0.00 0.00 0.00 87 1012.4
20260506152548 13 184 20.9 33.8 0.00 0.00 0.00 87 1012.3
20260506152046 13 181 17.7 32.2 0.00 0.00 0.00 87 1012.3
20260506151544 12 193 30.6 32.2 0.00 0.00 0.00 87 1012.4
20260506151041 13 200 25.7 29.0 0.00 0.00 0.00 87 1012.5
20260506150537 13 196 14.5 27.4 0.00 0.00 0.00 87 1012.7
20260506150034 13 198 17.7 29.0 0.00 0.00 0.00 87 1012.8
20260506145531 12 196 16.1 32.2 0.00 0.00 0.00 87 1012.8
20260506145028 12 159 12.9 30.6 0.00 0.00 0.00 87 1012.7
20260506144525 13 196 24.1 27.4 0.00 0.00 0.00 87 1012.6
20260506144022 12 201 16.1 29.0 0.00 0.00 0.00 87 1012.6
20260506143520 12 199 16.1 19.3 0.00 0.00 0.00 87 1012.7
20260506143018 12 199 19.3 32.2 0.00 0.00 0.00 87 1012.5
20260506142515 12 195 14.5 27.4 0.00 0.00 0.00 87 1012.6
20260506142013 12 215 25.7 33.8 0.00 0.00 0.00 87 1012.4
20260506141511 12 181 8.0 17.7 0.00 0.00 0.00 87 1012.4
20260506141009 12 187 9.7 17.7 0.00 0.00 0.00 87 1012.3
20260506140506 12 173 11.3 17.7 0.00 0.00 0.00 87 1012.2
20260506140003 12 174 11.3 16.1 0.00 0.00 0.00 87 1012.1
20260506135500 12 188 9.7 20.9 0.00 0.00 0.00 86 1012.3
20260506134956 13 170 6.4 22.5 0.00 0.00 0.00 87 1012.5
20260506134452 13 191 11.3 19.3 0.00 0.00 0.00 87 1012.6
20260506133949 13 192 11.3 27.4 0.00 0.00 0.00 87 1012.6
20260506133446 13 215 19.3 27.4 0.00 0.00 0.00 87 1012.7
20260506132943 12 209 16.1 24.1 0.00 0.00 0.00 87 1012.8
20260506132440 12 213 14.5 27.4 0.00 0.00 0.00 87 1012.8
20260506131937 13 203 17.7 19.3 0.00 0.00 0.00 87 1012.8
20260506131434 13 186 12.9 24.1 0.00 0.00 0.00 87 1012.7
20260506130931 13 215 24.1 27.4 0.00 0.00 0.00 87 1012.8
20260506130427 13 206 12.9 20.9 0.00 0.00 0.00 87 1012.7
20260506125925 13 209 19.3 24.1 0.00 0.00 0.00 87 1012.7
20260506125423 13 191 29.0 29.0 0.00 0.00 0.00 87 1012.6
20260506124921 13 210 16.1 25.7 0.00 0.00 0.00 87 1012.7
20260506124418 13 205 20.9 24.1 0.00 0.00 0.00 87 1012.6
20260506123916 13 196 19.3 25.7 0.00 0.00 0.00 87 1012.6
20260506123414 13 180 14.5 20.9 0.00 0.00 0.00 88 1012.5
20260506122911 13 188 20.9 20.9 0.00 0.00 0.00 88 1012.6
20260506122408 12 184 9.7 14.5 0.00 0.00 0.00 88 1012.6
20260506121906 12 206 11.3 20.9 0.00 0.00 0.00 89 1012.6
20260506121403 12 213 16.1 29.0 0.00 0.00 0.00 88 1012.6
20260506120859 12 199 14.5 17.7 0.00 0.00 0.00 88 1012.6
20260506120357 12 200 11.3 22.5 0.00 0.00 0.00 89 1012.5
20260506115855 12 195 16.1 22.5 0.00 0.00 0.00 89 1012.6
20260506115353 12 197 9.7 17.7 0.00 0.00 0.00 89 1012.7
20260506114850 12 201 14.5 25.7 0.00 0.00 0.00 89 1012.8
20260506114348 12 197 14.5 20.9 0.00 0.00 0.00 89 1012.8
20260506113847 12 207 14.5 19.3 0.00 0.00 0.00 90 1012.9
20260506113343 12 192 12.9 20.9 0.00 0.00 0.00 90 1013.0
20260506112840 12 184 9.7 24.1 0.00 0.00 0.00 91 1013.0
20260506112337 12 202 17.7 24.1 0.00 0.00 0.00 91 1013.0
20260506111834 12 193 19.3 20.9 0.00 0.00 0.00 91 1013.0
20260506111333 12 193 16.1 24.1 0.00 0.00 0.00 91 1012.8
20260506110830 12 188 20.9 32.2 0.00 0.00 0.00 91 1012.9
20260506110327 12 204 19.3 29.0 0.00 0.00 0.00 91 1012.8
20260506105824 12 207 20.9 27.4 0.00 0.00 0.00 91 1012.8
20260506105320 12 179 17.7 25.7 0.00 0.00 0.00 92 1012.9
20260506104818 12 208 24.1 27.4 0.00 0.00 0.00 92 1012.7
20260506104315 12 172 8.0 22.5 0.00 0.00 0.00 92 1012.5
20260506103813 12 181 9.7 17.7 0.00 0.00 0.00 92 1012.7
20260506103310 12 203 12.9 17.7 0.00 0.00 0.00 92 1012.5
20260506102808 12 183 12.9 14.5 0.00 0.00 0.00 93 1012.7
20260506102306 12 192 14.5 14.5 0.00 0.00 0.00 93 1012.8
20260506101803 12 188 12.9 17.7 0.00 0.00 0.00 93 1012.7
20260506101258 12 191 9.7 17.7 0.00 0.00 0.00 93 1012.7
20260506100756 12 193 12.9 17.7 0.00 0.00 0.00 93 1012.5
20260506100254 12 192 12.9 19.3 0.00 0.00 0.00 93 1012.5
20260506095753 12 195 14.5 20.9 0.00 0.00 0.00 93 1012.4
20260506095249 12 209 19.3 20.9 0.00 0.00 0.00 93 1012.6
20260506094746 12 195 16.1 19.3 0.00 0.00 0.00 93 1012.5
20260506094244 12 198 17.7 32.2 0.00 0.00 0.00 94 1012.3
20260506093743 11 185 12.9 17.7 0.00 0.00 0.00 93 1012.5
20260506093239 11 186 12.9 20.9 0.00 0.00 0.00 93 1012.4
20260506092737 11 193 17.7 22.5 0.00 0.00 0.00 93 1012.7
20260506092235 11 199 17.7 22.5 0.00 0.00 0.00 93 1012.6
20260506091732 11 198 19.3 24.1 0.00 0.00 0.00 93 1012.5
20260506091229 11 199 19.3 27.4 0.00 0.00 0.00 94 1012.5
20260506090727 11 210 20.9 30.6 0.00 0.00 0.00 93 1012.8
20260506090224 11 201 20.9 30.6 0.00 0.00 0.00 94 1012.6
20260506085721 11 203 25.7 33.8 0.00 0.00 0.00 94 1012.8
20260506085217 11 203 20.9 29.0 0.00 0.00 0.00 94 1012.8
20260506084714 11 211 27.4 30.6 0.00 0.00 0.00 93 1012.8
20260506084210 11 205 25.7 29.0 0.00 0.00 0.00 93 1012.8
20260506083707 11 212 20.9 30.6 0.00 0.00 0.00 93 1013.0
20260506083205 11 196 17.7 32.2 0.00 0.00 0.00 93 1012.9
20260506082702 11 206 20.9 29.0 0.00 0.00 0.00 93 1012.8
20260506082202 11 217 22.5 27.4 0.00 0.00 0.00 93 1013.0
20260506081700 11 212 19.3 27.4 0.00 0.00 0.00 93 1013.0
20260506081158 11 212 22.5 27.4 0.00 0.00 0.00 93 1013.2
20260506080655 12 190 12.9 24.1 0.00 0.00 0.00 93 1013.0
20260506080152 12 219 22.5 25.7 0.00 0.00 0.00 93 1013.1
20260506073136 11 209 24.1 27.4 0.00 0.00 0.00 92 1013.0
20260506072632 11 183 19.3 27.4 0.00 0.00 0.00 92 1012.9
20260506072130 11 210 17.7 24.1 0.00 0.00 0.00 92 1012.9
20260506071627 11 210 24.1 25.7 0.00 0.00 0.00 92 1012.8
20260506071125 11 201 19.3 20.9 0.00 0.00 0.00 91 1013.0
20260506070622 11 194 16.1 25.7 0.00 0.00 0.00 91 1012.9
20260506070119 11 193 16.1 22.5 0.00 0.00 0.00 91 1012.9
20260506062056 12 202 27.4 35.4 0.00 0.00 0.00 90 1012.9
20260506061552 12 213 38.6 46.7 0.00 0.00 0.00 90 1012.8
20260506061050 12 211 30.6 41.8 0.00 0.00 0.00 90 1013.0
20260506060548 12 216 33.8 37.0 0.00 0.00 0.00 90 1013.2